GW7ERI-1 Weather Reports


Display with metric or nautical units.
time (UTC)temp
F
wind
direction
speed
MPH
gust
MPH
rain 1hr
in
rain 24hr
in
rain mn
in
humidity
%
barometer
mb
20170922152446 62 211 4.0 13.0 0.00 0.01 0.01 74 1018.7
20170922151546 62 213 5.0 13.0 0.00 0.01 0.01 72 1018.7
20170922150646 62 192 4.0 11.0 0.00 0.01 0.01 72 1018.5
20170922145746 62 208 4.0 11.0 0.00 0.01 0.01 71 1018.5
20170922144846 63 203 5.0 14.0 0.00 0.01 0.01 70 1018.4
20170922143946 63 205 5.0 11.0 0.00 0.01 0.01 69 1018.4
20170922143046 64 203 5.0 11.0 0.00 0.01 0.01 68 1018.4
20170922142146 64 197 5.0 10.0 0.00 0.01 0.01 66 1018.4
20170922141246 65 199 4.0 8.0 0.00 0.01 0.01 66 1018.4
20170922140346 64 200 4.0 9.0 0.00 0.01 0.01 68 1018.4
20170922135445 65 196 5.0 13.0 0.00 0.01 0.01 67 1018.5
20170922134546 65 191 5.0 11.0 0.00 0.01 0.01 65 1018.5
20170922133645 65 191 5.0 11.0 0.00 0.01 0.01 65 1018.5
20170922132745 64 210 4.0 14.0 0.00 0.01 0.01 66 1018.7
20170922131845 65 222 5.0 14.0 0.00 0.01 0.01 63 1018.8
20170922130946 65 218 5.0 11.0 0.00 0.01 0.01 63 1018.8
20170922130045 64 221 5.0 10.0 0.00 0.01 0.01 64 1018.8
20170922125145 64 214 4.0 9.0 0.00 0.01 0.01 65 1018.7
20170922124245 63 214 5.0 9.0 0.00 0.01 0.01 64 1018.9
20170922123345 64 210 5.0 11.0 0.00 0.01 0.01 63 1019.1
20170922122445 64 203 5.0 9.0 0.00 0.01 0.01 66 1019.0
20170922121545 64 206 4.0 12.0 0.00 0.01 0.01 65 1019.1
20170922120645 64 212 4.0 12.0 0.00 0.01 0.01 65 1019.2
20170922115745 63 221 5.0 11.0 0.00 0.01 0.01 66 1019.2
20170922114846 62 213 4.0 10.0 0.00 0.01 0.01 68 1019.2
20170922113945 62 209 5.0 11.0 0.00 0.01 0.01 70 1019.3
20170922113045 62 202 3.0 11.0 0.00 0.01 0.01 70 1019.1
20170922112145 62 219 4.0 9.0 0.00 0.01 0.01 71 1019.2
20170922111245 62 209 4.0 10.0 0.00 0.01 0.01 71 1019.2
20170922110345 62 209 3.0 8.0 0.00 0.01 0.01 74 1019.4
20170922105445 61 216 3.0 8.0 0.00 0.01 0.01 72 1019.5
20170922104545 61 209 3.0 9.0 0.00 0.01 0.01 73 1019.6
20170922103645 61 214 4.0 10.0 0.00 0.02 0.01 71 1019.6
20170922102745 61 212 4.0 9.0 0.00 0.02 0.01 73 1019.5
20170922101845 60 223 3.0 8.0 0.00 0.02 0.01 73 1019.7
20170922100945 60 237 4.0 9.0 0.00 0.02 0.01 74 1019.7
20170922100045 60 224 3.0 8.0 0.00 0.04 0.01 76 1019.6
20170922095145 60 203 3.0 9.0 0.00 0.06 0.01 78 1019.8
20170922094245 59 212 3.0 8.0 0.00 0.07 0.01 78 1019.6
20170922093345 59 212 3.0 9.0 0.00 0.08 0.01 79 1019.7
20170922092445 58 214 3.0 8.0 0.00 0.09 0.01 82 1019.7
20170922091545 58 204 2.0 7.0 0.00 0.09 0.01 83 1019.9
20170922090645 57 188 0.0 2.0 0.00 0.09 0.01 85 1019.8
20170922085745 56 129 0.0 1.0 0.00 0.09 0.01 88 1019.8
20170922084845 54 182 0.0 1.0 0.00 0.09 0.01 93 1019.7
20170922083945 53 63 0.0 3.0 0.00 0.09 0.01 95 1019.8
20170922083044 52 70 0.0 3.0 0.00 0.09 0.01 96 1019.8
20170922082145 52 46 0.0 1.0 0.00 0.09 0.01 97 1019.8
20170922081244 51 49 0.0 1.0 0.00 0.09 0.01 98 1019.8
20170922080344 50 62 0.0 1.0 0.00 0.09 0.01 97 1019.9
20170922075444 50 65 0.0 1.0 0.00 0.09 0.01 98 1020.0
20170922074545 49 65 0.0 1.0 0.00 0.09 0.01 98 1019.8
20170922073644 48 34 0.0 1.0 0.00 0.09 0.01 98 1019.9
20170922072744 48 22 0.0 1.0 0.00 0.09 0.01 98 1020.0
20170922071845 46 0 0.0 0.0 0.00 0.09 0.01 98 1019.9
20170922070944 45 0 0.0 0.0 0.00 0.09 0.01 98 1019.9
20170922070044 45 0 0.0 0.0 0.00 0.09 0.01 98 1019.8
20170922065144 44 0 0.0 0.0 0.00 0.09 0.01 98 1019.7
20170922064244 44 333 0.0 1.0 0.00 0.09 0.01 98 1019.7
20170922063344 44 332 0.0 1.0 0.00 0.09 0.01 97 1019.6
20170922062444 44 332 0.0 1.0 0.00 0.09 0.01 98 1019.6
20170922061544 44 333 0.0 1.0 0.00 0.09 0.01 97 1019.5
20170922060644 44 332 0.0 1.0 0.00 0.09 0.01 97 1019.3
20170922055744 44 332 0.0 1.0 0.00 0.09 0.01 97 1019.4
20170922054844 44 328 0.0 1.0 0.00 0.09 0.01 97 1019.4
20170922053945 44 329 0.0 2.0 0.00 0.09 0.01 97 1019.4
20170922053044 43 331 0.0 2.0 0.00 0.09 0.01 97 1019.2
20170922052144 43 327 0.0 2.0 0.00 0.09 0.01 97 1019.2
20170922051244 43 329 0.0 1.0 0.00 0.09 0.01 97 1019.3
20170922050344 43 328 0.0 1.0 0.00 0.09 0.01 97 1019.2
20170922045444 43 327 0.0 1.0 0.00 0.09 0.01 97 1019.2
20170922044544 43 326 0.0 3.0 0.00 0.09 0.01 97 1019.3
20170922043644 44 329 0.0 3.0 0.00 0.09 0.01 97 1019.3
20170922042744 44 329 0.0 2.0 0.00 0.09 0.01 97 1019.4
20170922041844 44 330 1.0 3.0 0.01 0.09 0.01 97 1019.3
20170922040944 44 327 1.0 2.0 0.01 0.09 0.01 97 1019.4
20170922040044 44 326 0.0 2.0 0.01 0.09 0.01 97 1019.3
20170922035144 44 326 1.0 2.0 0.01 0.09 0.01 97 1019.3
20170922034244 44 328 0.0 2.0 0.01 0.09 0.01 97 1019.2
20170922033344 44 337 0.0 1.0 0.01 0.09 0.01 97 1019.3
20170922032444 44 336 0.0 2.0 0.01 0.09 0.01 97 1019.3
20170922031544 44 327 0.0 2.0 0.00 0.09 0.00 97 1019.3
20170922030643 44 330 1.0 3.0 0.00 0.09 0.00 96 1019.3
20170922025743 44 330 1.0 2.0 0.00 0.09 0.00 96 1019.3
20170922024843 44 331 1.0 2.0 0.00 0.09 0.00 96 1019.3
20170922023944 45 327 1.0 2.0 0.00 0.09 0.00 96 1019.3
20170922023044 45 320 0.0 1.0 0.00 0.10 0.00 96 1019.3
20170922022143 45 335 0.0 1.0 0.00 0.10 0.00 96 1019.3
20170922021243 45 328 0.0 1.0 0.00 0.10 0.00 96 1019.4
20170922020343 45 326 0.0 2.0 0.00 0.10 0.00 96 1019.4
20170922015443 45 333 0.0 2.0 0.00 0.10 0.00 96 1019.3
20170922014543 45 324 1.0 3.0 0.00 0.10 0.00 96 1019.3
20170922013643 45 332 0.0 1.0 0.00 0.10 0.00 96 1019.4
20170922012743 45 327 0.0 2.0 0.00 0.10 0.00 96 1019.5
20170922011843 45 328 1.0 3.0 0.00 0.10 0.00 96 1019.2
20170922010943 45 329 0.0 2.0 0.00 0.10 0.00 96 1019.3
20170922010043 45 332 0.0 2.0 0.00 0.10 0.00 96 1019.4
20170922005143 45 329 0.0 2.0 0.00 0.10 0.00 96 1019.5
20170922004243 45 332 0.0 2.0 0.00 0.10 0.00 96 1019.4
20170922003343 45 0 0.0 0.0 0.00 0.10 0.00 96 1019.3
20170922002443 45 337 0.0 1.0 0.00 0.10 0.00 95 1019.4
20170922001543 45 337 0.0 1.0 0.00 0.10 0.00 95 1019.3
20170922000643 46 0 0.0 0.0 0.00 0.10 0.00 95 1019.2
20170921235743 46 338 0.0 1.0 0.00 0.10 0.10 95 1019.2
20170921234843 46 343 0.0 1.0 0.00 0.10 0.10 95 1019.2
20170921233943 46 0 0.0 0.0 0.00 0.10 0.10 95 1019.1
20170921233043 46 9 0.0 1.0 0.00 0.10 0.10 95 1019.1
20170921232143 46 9 0.0 1.0 0.00 0.10 0.10 95 1019.1
20170921231243 46 0 0.0 0.0 0.00 0.10 0.10 95 1019.0
20170921230343 47 0 0.0 0.0 0.00 0.10 0.10 95 1019.1
20170921225443 46 0 0.0 0.0 0.00 0.10 0.10 94 1019.0
20170921224543 47 0 0.0 0.0 0.00 0.10 0.10 94 1018.9
20170921223643 47 9 0.0 1.0 0.00 0.10 0.10 93 1018.9
20170921222743 47 9 0.0 1.0 0.00 0.10 0.10 93 1018.8
20170921221843 47 8 0.0 1.0 0.00 0.10 0.10 93 1018.7
20170921220943 48 0 0.0 0.0 0.00 0.10 0.10 93 1018.7
20170921220043 48 8 0.0 1.0 0.00 0.10 0.10 92 1018.7
20170921215143 48 10 0.0 1.0 0.00 0.10 0.10 92 1018.6
20170921214243 48 12 0.0 1.0 0.00 0.10 0.10 91 1018.6
20170921213342 49 16 0.0 1.0 0.00 0.11 0.10 91 1018.6
20170921212442 49 25 0.0 1.0 0.00 0.11 0.10 90 1018.4
20170921211543 49 0 0.0 0.0 0.00 0.12 0.10 89 1018.4
20170921210642 49 5 0.0 1.0 0.00 0.13 0.10 89 1018.3
20170921205742 50 337 0.0 1.0 0.00 0.14 0.10 88 1018.2
20170921204842 50 342 0.0 2.0 0.00 0.14 0.10 88 1018.3
20170921203942 50 324 0.0 1.0 0.00 0.15 0.10 89 1018.0
20170921203042 49 0 0.0 0.0 0.00 0.17 0.10 90 1018.0
20170921202142 50 0 0.0 0.0 0.00 0.18 0.10 88 1017.9
20170921201242 50 0 0.0 0.0 0.00 0.21 0.10 87 1017.9
20170921200342 51 0 0.0 0.0 0.00 0.24 0.10 87 1017.9
20170921195442 51 0 0.0 0.0 0.00 0.26 0.10 86 1017.7
20170921194542 52 0 0.0 0.0 0.00 0.28 0.10 85 1017.6
20170921193642 53 0 0.0 0.0 0.00 0.29 0.10 84 1017.5
20170921192742 53 0 0.0 0.0 0.00 0.31 0.10 82 1017.4
20170921191842 54 322 0.0 2.0 0.00 0.31 0.10 80 1017.3
20170921190942 54 325 0.0 1.0 0.00 0.31 0.10 80 1017.1
20170921190042 55 322 0.0 3.0 0.00 0.32 0.10 80 1017.0
20170921185142 55 0 0.0 0.0 0.00 0.33 0.10 82 1016.7
20170921184242 56 0 0.0 0.0 0.00 0.34 0.10 84 1016.6
20170921183342 56 55 0.0 1.0 0.00 0.34 0.10 85 1016.5
20170921182442 57 325 0.0 2.0 0.00 0.35 0.10 85 1016.4
20170921181542 58 0 0.0 0.0 0.00 0.35 0.10 83 1016.2
20170921180642 59 0 0.0 0.0 0.00 0.35 0.10 80 1016.1
20170921175742 60 342 0.0 2.0 0.00 0.35 0.10 78 1016.0
20170921174842 61 3 0.0 1.0 0.00 0.36 0.10 74 1016.0
20170921173942 63 2 0.0 1.0 0.00 0.37 0.10 71 1015.8
20170921173042 63 4 0.0 1.0 0.00 0.37 0.10 70 1015.7
20170921172142 62 4 0.0 1.0 0.00 0.37 0.10 73 1015.6
20170921171242 60 331 0.0 2.0 0.00 0.37 0.10 76 1015.6
20170921170342 61 309 0.0 3.0 0.00 0.37 0.10 74 1015.5
20170921165442 60 314 1.0 6.0 0.00 0.37 0.10 75 1015.3
20170921164542 59 318 1.0 4.0 0.00 0.37 0.10 76 1015.2
20170921163642 59 330 1.0 9.0 0.00 0.37 0.10 75 1015.0
20170921162742 60 317 2.0 7.0 0.00 0.37 0.10 73 1014.9
20170921161842 61 283 1.0 5.0 0.00 0.37 0.10 74 1014.8
20170921160941 62 257 1.0 4.0 0.00 0.37 0.10 75 1014.4
20170921160041 62 254 2.0 6.0 0.00 0.37 0.10 73 1014.4
20170921155141 63 256 2.0 7.0 0.00 0.37 0.10 71 1014.3
20170921154241 64 252 2.0 5.0 0.00 0.37 0.10 69 1014.3
20170921153341 64 253 1.0 5.0 0.00 0.37 0.10 70 1014.1